GALAXY 36 (G-36)

Last updated on Tue Oct 21 2025 00:02:55 GMT+0000 (Coordinated Universal Time)

1 54742U 22170B 25293.60540500 -.00000182 00000+0 00000+0 0 9995 2 54742 0.0193 238.5166 0001231 276.0961 3.6625 1.00273216 10371
UTC large
Height (km)
Speed (km/s)
/
Latitude / Longitude
Inclination (degrees)
Orbital Period (minutes)
Azimuth
Elevation
Range (km)
Doppler Factor

Next 0 passes for location: London (51.5072 / 0.1276)

Sorry there are no passes over London.